Location: Carogne
(42.4777°N, 9.3893°E)
Time: 17:23:18
(UTC+00:00)

Daily predictions for brighter satellites

Satellite Brightness Start Highest point End
(mag) Time Altitude Azimuth Time Altitude Azimuth Time Altitude Azimuth
Cosmos 1269 Rocket 4.5 18:11:08 10° SSW 18:16:23 70° WNW 18:21:43 10° NNE
STARLINK-1104 4.1 18:14:22 10° NW 18:18:23 49° NNE 18:22:25 10° ESE
STARLINK-1144 4.0 18:19:19 10° NW 18:23:22 52° NNE 18:27:26 10° ESE
ARGOS Delta rocket 4.2 18:20:31 10° SSE 18:25:35 59° ENE 18:30:55 10° N
Cosmos 2251 Rocket 4.0 18:21:57 10° S 18:26:56 41° ESE 18:31:57 10° NE
STARLINK-1103 3.9 18:24:17 10° NW 18:28:22 56° NNE 18:32:20 11° ESE
Cosmos 292 Rocket 4.4 18:24:29 10° N 18:28:56 37° ENE 18:33:23 10° SE
Cosmos 1455 Rocket 3.9 18:25:48 10° SSW 18:30:03 56° W 18:34:23 10° N
Cosmos 1953 3.1 18:26:39 10° SSE 18:30:06 30° E 18:33:36 10° NNE
YAOGAN 1 4.0 18:26:23 10° S 18:30:29 42° W 18:34:37 10° NNW
Cosmos 2315 Rocket 4.0 18:26:57 10° S 18:33:15 75° E 18:39:36 10° N
STARLINK-1101 3.8 18:29:15 10° NW 18:33:22 61° NNE 18:37:07 12° ESE
Resurs 01 Rocket 3.5 18:34:55 11° E 18:37:07 14° ENE 18:39:29 10° NNE
FREGAT/IRIS 2.9 18:34:40 10° SE 18:37:12 36° ENE 18:39:46 10° N
Aureole 3 4.0 18:34:08 10° SSE 18:38:14 49° E 18:43:29 10° NNE
STARLINK-1102 3.7 18:34:14 10° NW 18:38:22 66° NE 18:41:55 14° ESE
GEOS 3 Rocket 4.3 18:33:41 10° SSE 18:38:41 54° WSW 18:43:48 10° NW
NOSS 3-3 (A) 4.0 18:33:43 10° SSW 18:39:18 55° ESE 18:45:32 10° NE
NOSS 3-3 (C) 4.0 18:33:50 10° SSW 18:39:25 54° ESE 18:45:38 10° NE
Cosmos 1626 Rocket 3.5 18:35:40 10° N 18:40:04 77° E 18:44:24 10° SSE
Cosmos 2369 Rocket 2.6 18:34:47 10° NNW 18:40:15 45° ENE 18:45:28 11° SE
Cosmos 1626 2.7 18:39:01 10° NNW 18:42:41 59° W 18:46:19 10° S
STARLINK-1111 3.6 18:39:12 10° NW 18:43:21 72° NE 18:46:42 15° ESE
SL-8 R/B 4.1 18:41:18 10° WNW 18:46:00 54° NNE 18:49:51 15° E
Cosmos 1943 Rocket 2.2 18:40:49 10° NNW 18:46:21 66° ENE 18:51:53 10° SE
Cosmos 1437 4.1 18:44:23 10° NNE 18:46:42 20° ENE 18:47:32 18° E
ADEOS Rocket 4.3 18:41:28 10° N 18:47:40 47° WNW 18:53:16 10° SW
Cosmos 1709 Rocket 4.1 18:41:37 10° N 18:47:48 79° W 18:53:54 10° S
STARLINK-1073 3.6 18:44:11 10° NW 18:48:20 78° NE 18:51:29 17° ESE
CZ-2C R/B 4.3 18:45:27 10° NNE 18:49:49 36° E 18:54:06 10° SSE
Cosmos 1602 Rocket 3.5 18:45:23 10° N 18:49:51 76° E 18:54:14 10° SSE
Cosmos 1470 3.1 18:46:43 10° SSW 18:50:33 68° W 18:54:27 10° N
STARLINK-1121 3.6 18:49:08 10° NW 18:53:17 84° NE 18:56:15 19° SE
Ariane Rocket 3.1 18:49:36 10° SSE 18:54:40 84° WSW 18:59:46 10° NNW
IRIDIUM 114 4.4 18:51:00 10° N 18:56:08 55° E 19:01:14 10° SSE
STARLINK-1106 3.6 18:54:06 10° NW 18:58:16 89° SSW 19:01:02 20° SE
Abrixas rocket 3.5 18:56:04 10° W 18:58:47 32° NNW 19:01:18 11° NE
Aureole 2 Rocket 2.3 18:57:41 10° NNW 19:01:11 71° ENE 19:03:31 19° SSE
Cosmos 1943 3.3 18:56:57 10° S 19:02:25 54° ESE 19:07:57 10° NNE
Cosmos 2074 Rocket 4.1 18:56:37 10° N 19:02:47 55° ENE 19:08:54 10° SSE
STARLINK-1112 3.6 18:59:06 10° NW 19:03:15 82° SW 19:05:49 22° SE
ATLAS 2AS CENTAUR R/B 3.7 18:57:17 10° NNW 19:04:13 35° NE 19:08:47 18° E
IRIDIUM 103 4.3 19:00:07 10° N 19:05:20 67° E 19:10:31 10° S
ISS -3.8 19:02:23 10° NW 19:05:46 77° NNE 19:07:16 30° ESE
SL-08 RB Rocket 3.7 19:02:46 11° SSE 19:07:01 64° ENE 19:11:34 10° N
Cosmos 1825 Rocket 3.9 19:03:19 10° N 19:07:33 44° ENE 19:10:01 22° SE
USA 234 3.4 19:01:44 10° ENE 19:08:03 49° SE 19:14:20 10° SSW
STARLINK-1128 3.7 19:04:05 10° NW 19:08:14 75° SW 19:10:37 24° SE
SPOT 3 Rocket 3.6 19:06:50 15° SSE 19:11:09 58° ENE 19:16:16 10° N
STARLINK-1113 3.8 19:09:04 10° WNW 19:13:12 69° SW 19:15:23 26° SE
SJ-6B 3.0 19:13:28 10° S 19:17:33 80° WSW 19:21:43 10° NNW
STARLINK-1119 3.9 19:14:04 10° WNW 19:18:10 63° SW 19:20:11 28° SSE
Cosmos 1758 Rocket 3.4 19:15:01 10° N 19:19:22 71° E 19:22:13 21° SSE
STARLINK-1114 4.0 19:19:03 10° WNW 19:23:08 57° SW 19:24:58 30° SSE
IRIDIUM 106 4.4 19:18:23 10° N 19:23:37 83° W 19:28:49 10° S
MOS 1 Rocket 3.7 19:19:16 10° NNE 19:24:30 53° E 19:29:48 10° S
Cosmos 1953 Rocket 3.8 19:22:13 10° N 19:26:34 48° ENE 19:27:53 36° SE
CZ-2C R/B 3.6 19:22:17 10° S 19:27:10 54° W 19:31:53 10° NNW
Cosmos 1818 3.5 19:22:18 10° SSW 19:27:42 70° ESE 19:33:08 10° NE
Cosmos 1606 Rocket 3.5 19:23:33 10° S 19:27:55 69° E 19:32:22 10° NNE
STARLINK-1130 (DARKSAT) 4.1 19:24:03 10° WNW 19:28:05 52° SW 19:29:44 31° SSE
Cosmos 614 Rocket 4.1 19:26:40 10° S 19:31:42 50° ESE 19:36:44 10° NNE
BREEZE M DEB (TANK) 3.8 19:20:14 10° SW 19:32:15 73° SSE 19:34:30 27° ENE
Cosmos 407 Rocket 3.8 19:30:03 23° SSE 19:32:46 42° ESE 19:37:36 10° NNE
STARLINK-1084 4.3 19:29:03 10° WNW 19:33:02 47° SW 19:34:31 32° S
Cosmos 2228 2.8 19:30:16 13° S 19:33:59 76° E 19:38:19 10° NNE
H-2A R/B 4.3 19:31:54 10° WSW 19:34:29 11° SW 19:36:18 10° SSW
SL-24 R/B 4.0 19:31:56 10° N 19:36:10 76° WNW 19:39:59 10° SSW
CZ-2C R/B 2.5 19:31:21 10° NNE 19:36:30 64° ESE 19:41:38 10° S
STARLINK-1098 4.4 19:34:05 10° WNW 19:38:01 43° SW 19:39:19 32° S
Cosmos 1656 Rocket 3.7 19:32:32 10° NNW 19:38:10 62° ENE 19:40:14 38° SE
ARGOS 4.1 19:35:00 10° S 19:40:11 47° W 19:45:24 10° NNW
Cosmos 2327 Rocket 4.4 19:33:54 10° N 19:40:14 74° E 19:44:16 24° SSE
MetOp-A 4.1 19:38:31 20° S 19:42:15 82° WSW 19:47:39 10° NNW
SL-4 R/B 1.7 19:40:54 10° SW 19:43:44 59° SSW 19:43:44 59° SSW
USA 186 4.4 19:42:54 10° SW 19:45:32 21° W 19:48:07 10° NW
BREEZE-M DEB (TANK) 3.7 19:40:30 10° WNW 19:45:37 45° NNE 19:45:58 43° NE
Cosmos 1603 4.4 19:40:35 10° SW 19:46:06 54° WNW 19:51:37 10° NNE
Cosmos 1726 3.4 19:42:56 10° SSW 19:46:29 41° WNW 19:50:04 10° N
Cosmos 1340 Rocket 3.5 19:47:46 41° NE 19:47:46 41° NE 19:50:45 10° NNE
COSMOS 2455 3.9 19:41:39 10° NNW 19:46:51 29° NE 19:48:18 26° ENE
Cosmos 2341 Rocket 4.4 19:41:13 10° N 19:47:15 43° ENE 19:48:37 38° ESE
H-2A R/B 3.7 19:44:27 10° SSW 19:49:08 32° W 19:53:44 10° NNW
Resurs 1-3 3.8 19:51:23 35° S 19:53:09 68° W 19:57:31 10° NNW
Cosmos 1328 3.8 19:50:52 10° N 19:54:53 77° W 19:55:27 62° SSW
Cosmos 1703 3.9 20:02:26 10° NNW 20:06:18 52° W 20:06:52 47° SW
Cosmos 1461 4.1 20:04:09 10° NNW 20:07:55 35° NE 20:07:55 35° NE
Cosmos 1023 Rocket 4.3 20:11:23 69° E 20:11:23 69° E 20:16:17 10° NNE
Resurs 01 Rocket 2.0 20:12:28 53° SW 20:13:06 59° W 20:17:28 10° NNW
USA 245 4.1 20:18:18 70° E 20:18:31 71° ENE 20:24:33 10° N
Cosmos 2181 Rocket 4.0 20:18:41 56° E 20:18:41 56° E 20:24:40 10° NNE
Cosmos 2058 Rocket 3.4 20:18:19 60° WSW 20:18:49 66° W 20:23:19 10° N
APEX 4.1 20:12:26 10° NNW 20:19:05 80° ENE 20:19:41 71° ESE
Cosmos 2154 Rocket 4.4 20:14:55 10° NNW 20:21:11 62° W 20:24:20 30° SSW
NOSS 3-4 (A) 3.8 20:16:08 10° NW 20:23:13 81° NE 20:24:57 57° SE
NOSS 3-4 (C) 3.8 20:16:14 10° NW 20:23:19 80° NE 20:25:02 57° SE
Landsat 7 4.3 20:24:18 49° NNE 20:24:18 49° NNE 20:28:02 10° N
Cosmos 2369 Rocket 3.9 20:19:19 10° NW 20:23:59 27° WSW 20:27:19 16° SSW
Cosmos 962 Rocket 4.4 20:22:01 10° N 20:28:13 87° W 20:29:12 65° S
SL-8 R/B 4.4 20:23:56 10° WNW 20:27:50 45° WSW 20:27:50 45° WSW
SL-8 Rocket 3.9 20:26:34 10° N 20:32:53 69° E 20:32:55 69° E
SPOT 5 4.4 20:39:20 24° NNE 20:39:20 24° NNE 20:41:18 10° N
SL-24 R/B - RUBIN 2 4.3 20:31:45 10° SW 20:37:15 76° NW 20:43:31 10° NNE
Cosmos 2366 rocket 4.1 20:37:05 10° N 20:42:31 61° NE 20:42:31 61° NE
Spot 2 Rocket 3.9 20:46:23 59° W 20:46:23 59° W 20:51:06 10° NNW
USA 234 3.8 20:44:44 10° NE 20:51:05 55° NNW 20:57:24 10° WSW
Cosmos 1140 Rocket 4.1 20:51:22 51° W 20:51:42 52° WNW 20:56:46 10° N
ATLAS 2AS CENTAUR R/B 2.9 20:48:17 10° NW 20:55:40 63° WSW 20:56:14 61° SW
BREEZE M DEB (TANK) 4.0 21:02:08 56° NE 21:02:08 56° NE 21:12:55 10° ENE
Terra 3.5 21:07:36 28° N 21:07:36 28° N 21:09:53 10° N
CZ-4C R/B 4.5 21:10:22 10° NNW 21:15:45 23° NNE 21:17:32 21° NE
COSMOS 2455 3.8 21:27:13 10° NW 21:31:27 42° WNW 21:31:27 42° WNW
Cosmos 1980 Rocket 4.3 21:31:23 10° N 21:33:52 18° NNE 21:33:52 18° NNE
SL-16 R/B 4.5 22:58:29 10° N 23:00:32 20° N 23:00:32 20° N
CZ-4C R/B 3.9 22:58:14 10° NNW 23:02:42 42° NNW 23:02:42 42° NNW
Cosmos 2322 Rocket 4.5 23:09:49 10° N 23:11:48 19° N 23:11:48 19° N
Cosmos 2344 4.4 23:30:01 10° NW 23:38:51 74° WNW 23:38:51 74° WNW
Cosmos 2082 Rocket 4.5 23:44:35 20° N 23:44:35 20° N 23:46:33 10° N
